When you browse on this site, cookies collect data to enhance your experience and personalize the content and advertising you see.
Visit our Privacy Policy to learn more. By continuing to use the site, you agree to this use of cookies and data.
  • In Lithuania
  • List of Countries
  • For 7 days
  • Water Temperature
  • Weather Map
  • Weather Widgets
  • user-avatar
    Login

    Hourly Weather Bolshoe Kashino

    Today, 27 February, Thursday

    Time Temperature Precipitation Wind Pressure Humidity
    00:00 -1°C° 0 mm 1 mps 723 mmHg 94%
    01:00 -1°C° 0 mm 1 mps 723 mmHg 94%
    02:00 -1°C° 0 mm 1 mps 723 mmHg 94%
    03:00 0°C° 0 mm 1 mps 723 mmHg 94%
    04:00 0°C° 0 mm 1 mps 723 mmHg 94%
    05:00 0°C° 0 mm 1 mps 722 mmHg 94%
    06:00 -2°C° 0 mm 2 mps 722 mmHg 93%
    07:00 -2°C° 0 mm 2 mps 722 mmHg 93%
    08:00 -1°C° 0 mm 2 mps 722 mmHg 92%
    09:00 -1°C° 0.2 mm 2 mps 721 mmHg 93%
    10:00 -1°C° 0.2 mm 2 mps 721 mmHg 94%
    11:00 0°C° 0.2 mm 3 mps 721 mmHg 95%
    12:00 0°C° 0.5 mm 3 mps 720 mmHg 96%
    13:00 0°C° 0.5 mm 3 mps 720 mmHg 96%
    14:00 -1°C° 0.5 mm 3 mps 719 mmHg 97%
    15:00 0°C° 0.6 mm 3 mps 719 mmHg 97%
    16:00 0°C° 0.6 mm 3 mps 719 mmHg 97%
    17:00 +1°C° 0.6 mm 2 mps 719 mmHg 98%
    18:00 0°C° 0.1 mm 3 mps 719 mmHg 97%
    19:00 -1°C° 0.1 mm 3 mps 719 mmHg 96%
    20:00 -2°C° 0.1 mm 4 mps 719 mmHg 96%
    21:00 -2°C° 0.1 mm 4 mps 719 mmHg 94%
    22:00 -2°C° 0.1 mm 4 mps 720 mmHg 93%
    23:00 -2°C° 0.1 mm 5 mps 720 mmHg 91%

    Tomorrow, 28 February, Friday

    Time Temperature Precipitation Wind Pressure Humidity
    00:00 -2°C° 0 mm 5 mps 720 mmHg 90%
    01:00 -4°C° 0 mm 5 mps 720 mmHg 89%
    02:00 -3°C° 0 mm 4 mps 720 mmHg 87%
    03:00 -4°C° 0 mm 4 mps 721 mmHg 88%
    04:00 -4°C° 0 mm 4 mps 721 mmHg 88%
    05:00 -4°C° 0 mm 4 mps 721 mmHg 88%
    06:00 -4°C° 0 mm 4 mps 721 mmHg 87%
    07:00 -4°C° 0 mm 4 mps 722 mmHg 85%
    08:00 -4°C° 0 mm 4 mps 722 mmHg 83%
    09:00 -3°C° 0 mm 4 mps 722 mmHg 82%
    10:00 -2°C° 0 mm 3 mps 722 mmHg 81%
    11:00 -2°C° 0 mm 3 mps 722 mmHg 80%
    12:00 -2°C° 0 mm 3 mps 722 mmHg 80%
    13:00 -1°C° 0 mm 3 mps 723 mmHg 80%
    14:00 -2°C° 0 mm 4 mps 723 mmHg 80%
    15:00 -2°C° 0 mm 3 mps 723 mmHg 83%
    16:00 -2°C° 0 mm 3 mps 723 mmHg 87%
    17:00 -2°C° 0 mm 2 mps 724 mmHg 90%
    18:00 -2°C° 0.3 mm 3 mps 724 mmHg 91%
    19:00 -2°C° 0.3 mm 3 mps 724 mmHg 92%
    20:00 -3°C° 0.3 mm 4 mps 725 mmHg 93%
    21:00 -3°C° 0.1 mm 4 mps 725 mmHg 93%
    22:00 -4°C° 0.1 mm 3 mps 725 mmHg 93%
    23:00 -4°C° 0.1 mm 3 mps 725 mmHg 93%

    Day after tomorrow, 29 February, Saturday

    Time Temperature Precipitation Wind Pressure Humidity
    00:00 -4°C° 0.1 mm 3 mps 726 mmHg 92%
    01:00 -4°C° 0.1 mm 4 mps 726 mmHg 91%
    02:00 -4°C° 0.1 mm 4 mps 727 mmHg 90%
    03:00 -5°C° 0.1 mm 4 mps 727 mmHg 90%
    04:00 -5°C° 0.1 mm 4 mps 727 mmHg 90%
    05:00 -5°C° 0.1 mm 4 mps 728 mmHg 89%
    06:00 -5°C° 0 mm 4 mps 728 mmHg 88%
    07:00 -6°C° 0 mm 3 mps 729 mmHg 86%
    08:00 -6°C° 0 mm 3 mps 729 mmHg 84%
    09:00 -6°C° 0 mm 3 mps 730 mmHg 79%
    10:00 -5°C° 0 mm 3 mps 730 mmHg 74%
    11:00 -4°C° 0 mm 3 mps 731 mmHg 69%
    12:00 -4°C° 0 mm 3 mps 731 mmHg 68%
    13:00 -4°C° 0 mm 3 mps 732 mmHg 68%
    14:00 -2°C° 0 mm 3 mps 732 mmHg 67%
    15:00 -4°C° 0 mm 3 mps 733 mmHg 71%
    16:00 -4°C° 0 mm 2 mps 733 mmHg 75%
    17:00 -4°C° 0 mm 2 mps 734 mmHg 79%
    18:00 -5°C° 0 mm 2 mps 734 mmHg 82%
    19:00 -3°C° 0 mm 1 mps 735 mmHg 85%
    20:00 -4°C° 0 mm 1 mps 735 mmHg 87%
    21:00 -4°C° 0 mm 1 mps 736 mmHg 88%
    22:00 -4°C° 0 mm 1 mps 736 mmHg 88%
    23:00 -4°C° 0 mm 1 mps 737 mmHg 89%

    1 March, Sunday

    Time Temperature Precipitation Wind Pressure Humidity
    00:00 -4°C° 0 mm 1 mps 737 mmHg 89%
    01:00 -4°C° 0 mm 1 mps 737 mmHg 89%
    02:00 -4°C° 0 mm 1 mps 738 mmHg 89%
    03:00 -6°C° 0 mm 2 mps 738 mmHg 89%
    04:00 -6°C° 0 mm 2 mps 738 mmHg 88%
    05:00 -7°C° 0 mm 2 mps 739 mmHg 88%
    06:00 -6°C° 0 mm 2 mps 739 mmHg 85%
    07:00 -7°C° 0 mm 3 mps 739 mmHg 82%
    08:00 -6°C° 0 mm 3 mps 739 mmHg 79%
    09:00 -5°C° 0 mm 4 mps 739 mmHg 74%
    10:00 -4°C° 0 mm 4 mps 739 mmHg 70%
    11:00 -4°C° 0 mm 5 mps 739 mmHg 65%
    12:00 -2°C° 0 mm 5 mps 738 mmHg 64%
    13:00 -2°C° 0 mm 5 mps 738 mmHg 63%
    14:00 -1°C° 0 mm 5 mps 738 mmHg 61%
    15:00 -2°C° 0 mm 5 mps 737 mmHg 61%
    16:00 -2°C° 0 mm 5 mps 737 mmHg 62%
    17:00 -3°C° 0 mm 4 mps 737 mmHg 62%
    18:00 -2°C° 0 mm 5 mps 737 mmHg 63%
    19:00 -2°C° 0 mm 5 mps 736 mmHg 65%
    20:00 -3°C° 0 mm 6 mps 736 mmHg 66%
    21:00 -3°C° 0 mm 6 mps 736 mmHg 68%
    22:00 -3°C° 0 mm 6 mps 736 mmHg 70%
    23:00 -3°C° 0 mm 6 mps 736 mmHg 72%

    2 March, Monday

    Time Temperature Precipitation Wind Pressure Humidity
    00:00 -3°C° 0 mm 6 mps 736 mmHg 74%
    01:00 -3°C° 0 mm 6 mps 735 mmHg 76%
    02:00 -3°C° 0 mm 6 mps 735 mmHg 78%
    03:00 -3°C° 0 mm 6 mps 735 mmHg 81%
    04:00 -3°C° 0 mm 6 mps 735 mmHg 84%
    05:00 -3°C° 0 mm 6 mps 734 mmHg 86%
    06:00 -3°C° 0.1 mm 6 mps 734 mmHg 87%
    07:00 -3°C° 0.1 mm 6 mps 734 mmHg 88%
    08:00 -3°C° 0.1 mm 6 mps 734 mmHg 89%
    09:00 -3°C° 0.1 mm 6 mps 734 mmHg 91%
    10:00 -2°C° 0.1 mm 5 mps 734 mmHg 93%
    11:00 -1°C° 0.1 mm 5 mps 734 mmHg 94%
    12:00 -2°C° 0.2 mm 5 mps 733 mmHg 95%
    13:00 -2°C° 0.2 mm 5 mps 733 mmHg 96%
    14:00 -2°C° 0.2 mm 5 mps 733 mmHg 96%
    15:00 -2°C° 0.3 mm 5 mps 733 mmHg 96%
    16:00 -2°C° 0.3 mm 5 mps 733 mmHg 96%
    17:00 -2°C° 0.3 mm 5 mps 733 mmHg 96%
    18:00 -2°C° 0.2 mm 4 mps 733 mmHg 96%
    19:00 -2°C° 0.2 mm 4 mps 733 mmHg 96%
    20:00 -2°C° 0.2 mm 4 mps 733 mmHg 97%
    21:00 -1°C° 0.1 mm 4 mps 733 mmHg 97%
    22:00 0°C° 0.1 mm 3 mps 733 mmHg 97%
    23:00 0°C° 0.1 mm 3 mps 733 mmHg 97%

    3 March, Tuesday

    Time Temperature Precipitation Wind Pressure Humidity
    00:00 0°C° 0 mm 3 mps 733 mmHg 97%
    01:00 +1°C° 0 mm 2 mps 733 mmHg 97%
    02:00 +1°C° 0 mm 2 mps 734 mmHg 98%
    03:00 +1°C° 0 mm 2 mps 734 mmHg 97%
    04:00 -1°C° 0 mm 2 mps 734 mmHg 97%
    05:00 -1°C° 0 mm 2 mps 734 mmHg 97%
    06:00 -1°C° 0 mm 2 mps 735 mmHg 96%
    07:00 -1°C° 0 mm 2 mps 735 mmHg 95%
    08:00 +1°C° 0 mm 2 mps 735 mmHg 94%
    09:00 +1°C° 0 mm 2 mps 735 mmHg 92%
    10:00 +2°C° 0 mm 2 mps 736 mmHg 90%
    11:00 +3°C° 0 mm 2 mps 736 mmHg 87%
    12:00 +4°C° 0 mm 2 mps 736 mmHg 86%
    13:00 +4°C° 0 mm 2 mps 736 mmHg 85%
    14:00 +4°C° 0 mm 3 mps 736 mmHg 84%
    15:00 +4°C° 0 mm 2 mps 737 mmHg 87%
    16:00 +3°C° 0 mm 2 mps 737 mmHg 90%
    17:00 +2°C° 0 mm 2 mps 737 mmHg 93%
    18:00 +1°C° 0 mm 2 mps 737 mmHg 94%
    19:00 +1°C° 0 mm 2 mps 737 mmHg 94%
    20:00 -1°C° 0 mm 3 mps 738 mmHg 95%
    21:00 -1°C° 0 mm 2 mps 738 mmHg 95%
    22:00 -1°C° 0 mm 2 mps 738 mmHg 95%
    23:00 -2°C° 0 mm 2 mps 739 mmHg 95%
    Show more